www.pogodaiklimat.ru

Погода и климат >> Архив погоды >> Чили >> Икике


ПОГОДА в Икике

  • Прогноз погоды в Икике
  • Монитор погоды в Икике

АРХИВ ПОГОДЫ в Икике

Время (UTC), дата Ветер
(напр.,м/с)
 
Видим.   Явления Облачность Т
(С)
Тd
(С)
f
(%)
Тe
(С)
Тes
(С)
Комфортность P
(гПа)
Po
(гПа)
Тmin
(С)
Tmax
(С)
R
(мм)
R24
(мм)
S
(см)
06 15.04 ЮВ 2 15 км ясно +17.1 +11.7 71 +18 +18 1013.8 1008.3
09 15.04 В 2 20 км ясно +17.1 +12.7 75 +17 +17 1013.1 1007.5
12 15.04 штиль 0 20 км ясно +17.9 +12.6 71 +18 +20 1013.8 1008.2 +15.6
15 15.04 ЮЗ 7 20 км ясно +21.2 +13.2 60 +24 +27 комфорт 1014.1 1008.5
18 15.04 ЮЗ 8 20 км ясно +21.7 +14.5 64 +25 +28 комфорт 1012.4 1006.9
21 15.04 Ю 8 20 км ясно +20.9 +14.4 66 +23 +24 комфорт 1011.7 1006.2
00 16.04 Ю 6 20 км ясно +18.8 +14.3 75 +19 +19 1013.6 1008.0 +22.3
03 16.04 Ю 3 20 км ясно +18.2 +13.6 75 +19 +19 1015.4 1009.8
06 16.04 ЮВ 2 20 км ясно +18.0 +13.2 74 +19 +19 1014.8 1009.2
09 16.04 В 2 20 км 10/10 700 м
[Sc]
+18.4 +13.5 73 +19 +19 1013.8 1008.2
12 16.04 Ю 1 10 км 10/10 700 м
[Sc]
+19.0 +13.7 71 +21 +21 комфорт 1015.1 1009.5 +17.7
15 16.04 ЮЗ 4 10 км 9/9 800 м
[Sc]
+20.4 +13.9 66 +23 +24 комфорт 1015.5 1009.9
18 16.04 ЮЗ 6 20 км 6/6 840 м
[Sc]
+21.1 +13.4 61 +23 +26 комфорт 1012.8 1007.2
21 16.04 ЮЗ 5 20 км 9/0
[Ci]
+20.4 +13.5 65 +23 +24 комфорт 1011.4 1005.8
00 17.04 Ю 4 10 км 8/8 870 м
[Sc]
+19.0 +13.3 70 +20 +20 1013.2 1007.6 +21.8
03 17.04 Ю 5 20 км 10/10 800 м
[Sc]
+19.0 +14.1 73 +20 +20 1015.0 1009.4
06 17.04 Ю 3 20 км 10/10 800 м
[Sc]
+19.2 +13.2 68 +21 +21 комфорт 1013.8 1008.2
09 17.04 ЮВ 2 10 км 5/5 840 м
[Sc]
+18.0 +12.5 70 +19 +19 1011.9 1006.3
12 17.04 В 1 20 км 6/6 800 м
[Sc]
+17.9 +12.6 71 +19 +20 1013.8 1008.2 +16.7
15 17.04 З 3 20 км 4/4 840 м
[Sc]
+20.6 +13.4 63 +23 +30 комфорт 1014.2 1008.6
18 17.04 З 4 20 км 6/0
[Cs]
+21.2 +13.1 60 +24 +32 комфорт 1012.6 1007.1
21 17.04 ЮЗ 6 20 км 9/3 900 м
[Sc Ci sp]
+20.3 +13.1 63 +22 +23 комфорт 1011.9 1006.3
00 18.04 Ю 4 10 км 10/10 900 м
[Sc]
+19.9 +13.5 67 +22 +22 комфорт 1013.6 1008.0 +22.2
03 18.04 Ю 3 10 км 6/6 900 м
[Sc]
+19.1 +13.4 70 +20 +20 1013.6 1008.0
06 18.04 ЮВ 3 10 км 3/3 1200 м
[Sc]
+18.2 +12.5 69 +19 +19 1012.9 1007.3
09 18.04 В 3 10 км 9/9 800 м
[Sc]
+18.6 +12.7 69 +19 +19 1011.8 1006.2
12 18.04 Ю 3 10 км 10/10 800 м
[Sc]
+19.1 +12.7 66 +20 +20 1013.2 1007.6 +17.8
15 18.04 ЮЗ 4 15 км 8/8 870 м
[Sc]
+20.6 +13.2 63 +23 +25 комфорт 1013.9 1008.3
18 18.04 ЮЗ 6 15 км 5/0
[Ci fib]
+21.0 +12.7 59 +23 +29 комфорт 1012.5 1006.9
21 18.04 Ю 6 20 км 8/1 1000 м
[Sc Cc]
+20.0 +12.8 63 +21 +22 комфорт 1011.8 1006.2
00 19.04 Ю 5 10 км 10/10 900 м
[Sc]
+19.1 +12.9 67 +20 +20 1013.6 1008.0 +21.6
03 19.04 Ю 4 20 км 10/10 900 м
[Sc]
+19.8 +12.9 64 +21 +21 комфорт 1014.9 1009.3
06 19.04 штиль 0 20 км 10/10 960 м
[Sc]
+19.9 +13.0 64 +21 +21 комфорт 1014.4 1008.8
09 19.04 Ю 3 20 км 10/10 930 м
[Sc]
+19.0 +12.6 66 +20 +20 1013.4 1007.8
12 19.04 штиль 0 20 км 10/10 930 м
[Sc]
+19.7 +12.6 64 +21 +21 комфорт 1014.5 1008.9 +19.0
15 19.04 ЮЗ 4 15 км 8/8 1000 м
[Sc]
+21.0 +12.5 58 +24 +26 комфорт 1015.5 1009.9
18 19.04 ЮЗ 7 20 км ясно +21.1 +11.8 55 +23 +27 комфорт 1013.8 1008.2
21 19.04 ЮЗ 5 20 км ясно +20.6 +12.4 59 +23 +24 комфорт 1012.9 1007.3
00 20.04 Ю 5 20 км 3/3 840 м
[Sc]
+18.9 +12.7 67 +19 +19 1011.6 1009.5 +22.1
03 20.04 Ю 4 10 км 10/10 1000 м
[Sc]
+19.5 +12.6 64 +21 +21 комфорт 1016.5 1010.9
06 20.04 В 3 10 км ясно +18.1 +11.5 65 +19 +19 1016.0 1010.4
09 20.04 Ю 4 10 км 10/10 1020 м
[Sc]
+19.4 +11.8 61 +21 +21 комфорт 1015.2 1009.6
12 20.04 В 2 15 км 6/6 1020 м
[Sc]
+18.6 +11.7 64 +20 +20 1015.7 1010.1 +16.9
15 20.04 ЮЗ 5 20 км 4/3 1020 м
[Sc Ci fib]
+21.1 +11.8 55 +23 +28 комфорт 1016.5 1010.9
18 20.04 ЮЗ 6 20 км ясно +21.0 +11.7 55 +23 +29 комфорт 1014.8 1009.2
21 20.04 Ю 7 20 км ясно +20.9 +11.9 56 +23 +24 комфорт 1014.2 1008.6
00 21.04 Ю 5 15 км 8/8 1000 м
[Sc]
+19.2 +13.0 67 +20 +20 1015.9 1010.3 +21.8
03 21.04 ЮЗ 3 10 км 10/10 1080 м
[Sc]
+19.5 +13.1 66 +21 +21 комфорт 1017.8 1012.2
06 21.04 штиль 0 20 км 5/5 1000 м
[Sc]
+18.1 +10.8 62 +18 +18 1016.9 1011.3
09 21.04 ЮВ 3 10 км ясно +18.0 +11.2 64 +18 +18 1014.9 1009.3
12 21.04 В 2 20 км ясно +17.6 +11.5 67 +18 +20 1015.5 1009.9 +17.3
15 21.04 ЮЗ 6 20 км ясно +20.6 +11.6 56 +22 +27 комфорт 1015.8 1010.2
18 21.04 ЮЗ 8 20 км ясно +21.2 +11.9 55 +23 +25 комфорт 1014.6 1009.0
21 21.04 ЮЗ 8 20 км ясно +20.3 +13.4 65 +22 +22 комфорт 1013.5 1007.9
00 22.04 Ю 6 20 км ясно +18.4 +13.1 71 +18 +18 1015.3 1009.7 +22.0
03 22.04 ЮВ 2 20 км ясно +18.1 +11.7 66 +19 +19 1016.9 1011.3

 

Местоположение метеостанции Икике (Чили): широта -20.53 долгота -70.18 высота над уровнем моря 48 м.

В архиве по умолчанию представлена погода в Икике за последнюю неделю. Архивные данные за месяц целиком и за предыдущие месяцы, начиная с января 2011 года, Вы можете получить, выбрав интересующий диапазон дат из раскрывающегося списка и нажав кнопку "Ввод!".


*Определитесь, кто Вы:
робот инопланетянин человек

Внимание! Время в таблицах - всемирное. Для получения местного времени необходимо прибавить поправку, которая равна -4 ч.

Смотрите также архив погоды в соседних городах и на ближайших метеорологических станциях:

Погода в Икика университете (Чили) (29 км)
Погода в Арика аэропорту (Чили) (227 км)
Погода в Арике (Чили) (230 км)
Погода в Каламе (Чили) (252 км)
Погода в Туре (Чили) (267 км)
Погода в Такне (Перу) (276 км)
Погода в Антофагасте (Чили) (324 км)
Погода в Висвири (Чили) (335 км)
Погода в Ило (Перу) (339 км)
Погода в Антофагаста университете (Чили) (351 км)

Пояснения к столбцам:

Ветер - указаны скорость ветра в м/с - средняя за 10 мин, порывы в срок и между сроками (в фигурных скобках) и направление, откуда дует ветер: С - северный, СВ - северо-восточный, В - восточный, ЮВ - юго-восточный, Ю - южный, ЮЗ - юго-западный, З - западный, СЗ - северо-западный.
Видимость - горизонтальная дальность видимости в метрах или километрах. При видимости от 1 до 10 км при отсутствии осадков обычно наблюдается дымка, при ухудшении видимости до 1 км и менее - туман. В сухую погоду видимость может ухудшаться дымом, пылью или мглою.
Явления - указаны атмосферные явления, наблюдавшиеся в срок или в последний час перед сроком; фигурными скобками обозначены явления, наблюдавшиеся между сроками (за 1-3 часа до срока); квадратными скобками обозначены град или гололедные отложения с указанием их диаметра в мм.
Облачность - указаны через наклонную черту общая и нижняя облачность в баллах и высота нижней границы облаков в метрах; квадратными скобками обозначены формы облаков: Ci - перистые, Cs - перисто-слоистые, Cc - перисто-кучевые, Ac - высококучевые, As - высокослоистые, Sc - слоисто-кучевые, Ns - слоисто-дождевые, Cu - кучевые, Cb - кучево-дождевые. Подробнее классификацию облаков см. в Атласе облаков (PDF).
T - Температура воздуха - температура, измеренная на высоте 2 м над землей.
Td - Температура точки росы - температура, при понижении до которой содержащийся в воздухе водяной пар достигнет насыщения.
f - Относительная влажность воздуха - влажноcть воздуха, измеренная на высоте 2 м над землей.
Te - Эффективная температура - температура, которую ощущает одетый по сезону человек в тени. Характеристика душности погоды. При расчете учитывается влияние влажности воздуха и скорости ветра на теплоощущения человека.
Tes - Эффективная температура на солнце - температура, которую ощущает человек, с поправкой на солнечный нагрев. Характеристика знойности погоды. Зависит от высоты солнца над горизонтом, облачности и скорости ветра. Ночью, в пасмурную погоду, а также при ветре 12 м/с и более поправка равна нулю.
P - Атмосферное давление - приведенное к уровню моря атмосферное давление.
Po - Атмосферное давление - измеренное на уровне метеостанции атмосферное давление.
Tmin - Минимальная температура - минимум температуры воздуха на высоте 2 м над землей.
Tmax - Максимальная температура - максимум температуры воздуха на высоте 2 м над землей.
R - Количество осадков - Количество выпавших осадков за период времени, мм. При наведении курсора мыши на число - период времени, за который выпало указанное количество осадков.
R24 - Количество осадков - Количество выпавших осадков за 24 часа, мм.
S - Снежный покров - Высота снежного покрова, см. При наведении курсора мыши на число - состояние снежного покрова и степень покрытия местности в баллах.